Location: Luxembourg
(49.6117°N, 6.1300°E)
Time: 11:43:37
(UTC+01:00)

Envisat - Visible Passes

Search period start: 04 November 2024 00:00
Search period end: 14 November 2024 00:00
Orbit: 762 x 763 km, 98.3° (Epoch: 03 November)

Date Brightness Start Highest point End Pass type
(mag) Time Alt. Az. Time Alt. Az. Time Alt. Az.
04 Nov 5.4 03:34:42 10° NNE 03:35:50 17° NNE 03:35:50 17° NNE visible
04 Nov 4.8 05:14:22 10° N 05:15:58 17° NNW 05:15:58 17° NNW visible
05 Nov 5.9 02:57:34 10° NNE 02:57:45 11° NE 02:57:45 11° NE visible
05 Nov 4.8 04:36:19 10° N 04:37:52 19° N 04:37:52 19° N visible
06 Nov 5.2 03:58:36 10° NNE 03:59:47 17° NNE 03:59:47 17° NNE visible
06 Nov 5.0 05:38:57 10° NNW 05:39:55 13° NNW 05:39:55 13° NNW visible
07 Nov 5.7 03:21:12 10° NNE 03:21:41 13° NNE 03:21:41 13° NNE visible
07 Nov 4.9 05:00:32 10° N 05:01:49 16° NNW 05:01:49 16° NNW visible
08 Nov 5.1 04:22:36 10° N 04:23:43 17° N 04:23:43 17° N visible
09 Nov 5.5 03:45:00 10° NNE 03:45:38 14° NNE 03:45:38 14° NNE visible
09 Nov 5.0 05:24:56 10° NNW 05:25:46 13° NNW 05:25:46 13° NNW visible
10 Nov 5.1 04:46:44 10° N 04:47:40 15° N 04:47:40 15° N visible
11 Nov 5.4 04:08:55 10° N 04:09:34 14° N 04:09:34 14° N visible
12 Nov 5.8 03:31:24 10° NNE 03:31:28 10° NNE 03:31:28 10° NNE visible
12 Nov 5.2 05:11:01 10° N 05:11:36 13° NNW 05:11:36 13° NNW visible
13 Nov 5.3 04:32:58 10° N 04:33:30 13° N 04:33:30 13° N visible
